CW9659 Weather Reports


time (UTC)temp
F
wind
direction
speed
knots
gust
knots
rain 1hr
in
rain 24hr
in
rain mn
in
humidity
%
barometer
mb
20260906120903 68 104 0.0 0.0 0.00 0.26 0.00 57 1011.9
20260906120404 68 104 0.0 0.0 0.00 0.26 0.00 58 1011.8
20260906115904 68 104 0.0 0.0 0.00 0.26 0.00 58 1011.7
20260906115403 68 104 0.0 0.0 0.00 0.26 0.00 58 1011.7
20260906114903 68 104 0.0 0.0 0.00 0.26 0.00 58 1011.6
20260906113903 68 104 0.0 0.0 0.00 0.26 0.00 59 1011.5
20260906112404 68 104 0.0 0.0 0.00 0.26 0.00 60 1011.5
20260906110903 68 104 0.0 0.0 0.00 0.26 0.00 61 1011.3
20260906110403 68 104 0.0 0.0 0.00 0.26 0.00 60 1011.3
20260906105903 68 104 0.0 0.0 0.00 0.26 0.00 60 1011.3
20260906104904 68 104 0.0 0.0 0.00 0.26 0.00 60 1011.1
20260906104403 68 104 0.0 0.0 0.00 0.26 0.00 60 1011.1
20260906103904 68 104 0.0 0.0 0.00 0.26 0.00 60 1011.0
20260906103404 68 104 0.0 0.0 0.00 0.26 0.00 60 1011.1
20260906102404 68 104 0.0 0.0 0.00 0.26 0.00 61 1011.0
20260906101904 68 104 0.0 0.0 0.00 0.26 0.00 61 1011.0
20260906101403 68 104 0.0 0.0 0.00 0.26 0.00 61 1010.9
20260906100904 68 104 0.0 0.0 0.00 0.26 0.00 61 1010.9
20260906100404 68 104 0.0 0.0 0.00 0.26 0.00 61 1011.0
20260906095904 69 104 0.0 0.0 0.00 0.26 0.00 61 1011.0
20260906094903 69 104 0.0 0.0 0.00 0.26 0.00 61 1010.9
20260906094404 69 104 0.0 0.0 0.00 0.26 0.00 61 1011.0
20260906093903 69 105 0.0 0.0 0.00 0.26 0.00 61 1010.9
20260906093403 69 105 0.0 0.0 0.00 0.26 0.00 61 1010.9
20260906092904 69 105 0.0 0.9 0.00 0.26 0.00 61 1010.9
20260906092403 69 105 0.0 0.9 0.00 0.26 0.00 61 1011.0
20260906091903 69 105 0.0 0.0 0.00 0.26 0.00 61 1010.9
20260906091403 69 105 0.0 0.0 0.00 0.26 0.00 61 1010.8
20260906090903 69 105 0.0 0.0 0.00 0.26 0.00 61 1010.7
20260906090403 69 104 0.0 0.9 0.00 0.26 0.00 61 1010.7
20260906085904 69 101 0.0 0.0 0.00 0.26 0.00 61 1010.7
20260906085404 69 101 0.0 0.9 0.00 0.26 0.00 61 1010.7
20260906084903 69 101 0.0 0.0 0.00 0.26 0.00 61 1010.6
20260906084403 69 101 0.0 0.0 0.00 0.26 0.00 62 1010.6
20260906083904 69 101 0.0 0.0 0.00 0.26 0.00 62 1010.5
20260906083403 69 101 0.0 0.0 0.00 0.26 0.00 63 1010.4
20260906082904 69 101 0.0 0.0 0.00 0.26 0.00 63 1010.4
20260906082404 69 101 0.0 0.0 0.00 0.26 0.00 63 1010.4
20260906081903 69 101 0.0 0.9 0.00 0.26 0.00 62 1010.3
20260906081404 69 101 0.0 0.0 0.00 0.26 0.00 63 1010.3
20260906080903 69 101 0.0 0.0 0.00 0.26 0.00 63 1010.2
20260906080404 69 101 0.0 0.0 0.00 0.26 0.00 65 1010.2
20260906075903 69 101 0.0 0.0 0.00 0.26 0.00 65 1010.2
20260906075403 69 101 0.0 0.0 0.00 0.26 0.00 65 1010.2
20260906074904 69 101 0.0 0.0 0.00 0.26 0.00 65 1010.2
20260906073904 69 101 0.0 0.9 0.00 0.26 0.00 65 1010.3
20260906073403 69 101 0.0 0.0 0.00 0.26 0.00 66 1010.2
20260906072904 69 101 0.0 0.0 0.00 0.26 0.00 67 1010.2
20260906072404 70 101 0.0 0.9 0.00 0.26 0.00 67 1010.2
20260906071903 70 101 0.0 0.9 0.00 0.26 0.00 67 1010.1
20260906071403 70 101 0.0 0.9 0.00 0.26 0.00 67 1010.2
20260906070903 70 101 0.0 0.0 0.00 0.26 0.00 69 1010.2
20260906070403 70 101 0.0 0.0 0.00 0.26 0.00 70 1010.1
20260906065903 70 101 0.0 0.0 0.00 0.26 0.00 69 1010.3
20260906065404 70 101 0.0 0.0 0.00 0.26 0.00 71 1010.2
20260906064903 70 101 0.0 0.0 0.00 0.26 0.00 71 1010.2
20260906064404 70 101 0.0 0.0 0.00 0.26 0.00 71 1010.1
20260906063404 70 102 0.0 2.6 0.00 0.26 0.00 73 1010.2
20260906062903 70 106 0.9 1.7 0.00 0.26 0.00 74 1010.2
20260906062404 71 127 0.0 0.9 0.00 0.26 0.00 75 1010.2
20260906061903 71 132 0.9 1.7 0.00 0.26 0.00 75 1010.2
20260906061404 71 108 0.0 0.9 0.00 0.26 0.00 76 1010.1
20260906060903 71 105 0.0 0.9 0.00 0.26 0.00 76 1010.1
20260906055903 71 105 0.0 0.0 0.00 0.26 0.00 79 1010.0
20260906055403 71 105 0.0 0.9 0.00 0.26 0.00 80 1010.0
20260906054904 71 105 0.0 0.9 0.00 0.26 0.00 80 1010.0
20260906054403 71 105 0.0 0.9 0.00 0.26 0.00 82 1010.1
20260906053903 71 105 0.0 0.0 0.00 0.26 0.00 83 1010.0
20260906053404 72 105 0.0 0.9 0.00 0.26 0.00 83 1010.0
20260906052903 72 113 0.0 0.0 0.00 0.26 0.00 84 1010.0
20260906052404 72 113 0.0 0.9 0.00 0.26 0.00 85 1010.0
20260906051903 72 113 0.9 2.6 0.00 0.26 0.00 85 1010.0
20260906051404 72 116 1.7 2.6 0.00 0.26 0.00 85 1010.1
20260906050903 72 111 1.7 2.6 0.00 0.26 0.00 85 1010.2
20260906050403 72 122 1.7 2.6 0.00 0.26 0.00 85 1010.2
20260906045904 72 122 0.9 2.6 0.00 0.26 0.26 85 1010.3
20260906045403 71 118 1.7 2.6 0.00 0.26 0.26 84 1010.5
20260906044904 71 104 0.0 0.9 0.00 0.26 0.26 83 1010.6
20260906042904 72 121 0.9 2.6 0.04 0.26 0.26 77 1011.1
20260906042403 72 115 1.7 2.6 0.08 0.26 0.26 79 1011.3
20260906041904 72 126 0.0 0.9 0.09 0.26 0.26 80 1011.5
20260906041403 72 129 0.0 0.9 0.09 0.26 0.26 80 1011.5
20260906040404 72 167 0.0 0.9 0.09 0.26 0.26 82 1011.8
20260906035904 73 189 0.9 1.7 0.10 0.26 0.26 82 1012.1
20260906034904 73 166 0.9 2.6 0.13 0.26 0.26 82 1012.4
20260906024404 81 294 1.7 4.3 0.03 0.03 0.03 80 1011.4
20260906023904 82 0 1.7 10.4 0.00 0.00 0.00 77 1011.2
20260906023403 83 5 2.6 8.7 0.00 0.00 0.00 75 1010.8
20260906022903 83 22 0.9 2.6 0.00 0.00 0.00 77 1010.4
20260906022404 84 333 0.9 2.6 0.00 0.00 0.00 75 1010.4
20260906021403 85 120 0.0 0.0 0.00 0.00 0.00 72 1009.8
20260906020904 85 117 0.0 0.9 0.00 0.00 0.00 69 1009.3
20260906020404 85 112 0.0 0.9 0.00 0.00 0.00 70 1009.0
20260906015904 85 132 0.0 1.7 0.00 0.00 0.00 71 1009.0
20260906015404 85 113 0.9 1.7 0.00 0.00 0.00 71 1009.1
20260906014403 85 168 0.0 0.0 0.00 0.00 0.00 69 1009.6
20260906013403 86 127 0.0 1.7 0.00 0.00 0.00 69 1008.5
20260906012404 86 129 0.0 0.9 0.00 0.00 0.00 68 1008.6
20260906011904 87 119 0.9 1.7 0.00 0.00 0.00 68 1008.7
20260906011404 87 119 1.7 2.6 0.00 0.00 0.00 67 1008.7
20260906010903 87 120 0.9 2.6 0.00 0.00 0.00 67 1008.8
20260906010403 87 127 1.7 2.6 0.00 0.00 0.00 67 1009.0
20260906005904 87 107 0.9 2.6 0.00 0.00 0.00 67 1009.0
20260906005403 87 122 0.0 0.9 0.00 0.00 0.00 66 1009.1
20260906004904 87 125 0.0 0.9 0.00 0.00 0.00 66 1009.0
20260906004404 88 126 0.0 0.9 0.00 0.00 0.00 65 1009.1
20260906003903 88 119 0.0 0.9 0.00 0.00 0.00 65 1009.0
20260906003403 88 138 0.0 0.9 0.00 0.00 0.00 64 1009.1
20260906002903 88 138 0.0 2.6 0.00 0.00 0.00 64 1009.2
20260906002403 88 124 1.7 2.6 0.00 0.00 0.00 64 1009.3
20260906001903 88 117 0.9 1.7 0.00 0.00 0.00 64 1009.3
20260906001403 88 122 0.0 1.7 0.00 0.00 0.00 65 1009.4
20260905234903 89 72 0.0 0.0 0.00 0.00 0.00 62 1009.4
20260905234404 89 72 0.0 0.0 0.00 0.00 0.00 61 1009.4
20260905233904 90 72 0.0 0.0 0.00 0.00 0.00 60 1009.3
20260905233404 90 72 0.0 0.0 0.00 0.00 0.00 60 1009.2
20260905232904 90 72 0.0 0.9 0.00 0.00 0.00 60 1009.2
20260905231904 90 72 0.0 0.0 0.00 0.00 0.00 60 1009.2
20260905231404 90 72 0.0 0.0 0.00 0.00 0.00 60 1009.1
20260905230904 90 72 0.0 0.0 0.00 0.00 0.00 61 1009.1
20260905230403 90 72 0.0 0.0 0.00 0.00 0.00 60 1009.0
20260905225904 90 72 0.0 0.0 0.00 0.00 0.00 60 1008.9
20260905225404 90 72 0.0 0.9 0.00 0.00 0.00 60 1008.9
20260905224903 91 72 0.0 0.0 0.00 0.00 0.00 58 1008.8
20260905224403 91 72 0.0 0.0 0.00 0.00 0.00 57 1009.0
20260905223903 91 72 0.0 0.0 0.00 0.00 0.00 57 1009.1
20260905223403 92 72 0.0 0.9 0.00 0.00 0.00 57 1009.1
20260905222904 92 72 0.0 0.9 0.00 0.00 0.00 55 1009.2
20260905222404 93 72 0.0 0.0 0.00 0.00 0.00 55 1009.0
20260905221903 93 72 0.0 0.0 0.00 0.00 0.00 54 1009.1
20260905221404 94 72 0.0 0.0 0.00 0.00 0.00 54 1009.1
20260905220903 95 72 0.0 0.0 0.00 0.00 0.00 53 1009.0
20260905220403 95 72 0.0 0.0 0.00 0.00 0.00 51 1009.0
20260905215903 96 72 0.0 0.0 0.00 0.00 0.00 50 1009.1
20260905215403 96 72 0.0 0.9 0.00 0.00 0.00 49 1009.1
20260905214404 97 172 0.0 0.9 0.00 0.00 0.00 48 1009.0
20260905213903 97 132 0.0 0.9 0.00 0.00 0.00 48 1009.0
20260905213403 97 182 0.0 1.7 0.00 0.00 0.00 48 1009.0
20260905212904 97 334 0.0 0.9 0.00 0.00 0.00 47 1009.1
20260905212404 98 356 0.0 0.9 0.00 0.00 0.00 47 1009.1
20260905211903 99 301 0.9 1.7 0.00 0.00 0.00 46 1009.2
20260905211403 100 350 0.0 1.7 0.00 0.00 0.00 45 1009.1
20260905210904 100 55 0.0 2.6 0.00 0.00 0.00 45 1009.1
20260905210403 100 60 0.9 2.6 0.00 0.00 0.00 44 1009.2
20260905205904 100 302 0.0 1.7 0.00 0.00 0.00 45 1009.3
20260905205403 100 311 0.9 1.7 0.00 0.00 0.00 45 1009.3
20260905204904 100 305 0.9 2.6 0.00 0.00 0.00 44 1009.4
20260905204404 101 190 0.9 2.6 0.00 0.00 0.00 44 1009.4
20260905203904 101 81 0.9 1.7 0.00 0.00 0.00 44 1009.5
20260905203403 101 333 0.0 0.9 0.00 0.00 0.00 44 1009.6
20260905202904 100 309 0.9 0.9 0.00 0.00 0.00 44 1009.7
20260905202403 100 41 0.0 1.7 0.00 0.00 0.00 45 1009.6
20260905201904 100 25 0.9 2.6 0.00 0.00 0.00 44 1009.6
20260905201403 100 202 0.0 1.7 0.00 0.00 0.00 45 1009.6
20260905200903 100 273 0.0 0.9 0.00 0.00 0.00 44 1009.7
20260905200403 99 5 0.9 1.7 0.00 0.00 0.00 45 1009.8
20260905195903 98 289 0.9 2.6 0.00 0.00 0.00 49 1010.0
20260905195403 98 182 0.9 1.7 0.00 0.00 0.00 48 1010.0
20260905194404 98 189 0.0 0.9 0.00 0.00 0.00 49 1010.2
20260905193903 99 182 0.0 1.7 0.00 0.00 0.00 48 1010.2
20260905193403 99 175 0.9 2.6 0.00 0.00 0.00 48 1010.3
20260905192903 99 60 0.9 1.7 0.00 0.00 0.00 47 1010.4
20260905192403 99 88 0.9 1.7 0.00 0.00 0.00 46 1010.5
20260905191903 99 236 0.9 1.7 0.00 0.00 0.00 48 1010.6
20260905191404 98 359 0.0 2.6 0.00 0.00 0.00 48 1010.5
20260905190903 98 232 0.0 0.9 0.00 0.00 0.00 49 1010.5
20260905190403 98 339 0.0 0.9 0.00 0.00 0.00 49 1010.7
20260905185403 98 215 0.9 2.6 0.00 0.00 0.00 48 1010.8
20260905184903 98 356 0.0 1.7 0.00 0.00 0.00 47 1010.7
20260905183404 98 190 0.0 1.7 0.00 0.00 0.00 51 1010.7
20260905182904 98 43 0.9 2.6 0.00 0.00 0.00 51 1010.9
20260905182403 97 285 0.0 2.6 0.00 0.00 0.00 51 1011.1
20260905181903 97 319 0.9 2.6 0.00 0.00 0.00 51 1011.1
20260905181404 97 174 0.9 1.7 0.00 0.00 0.00 52 1011.2
20260905180403 96 275 0.9 2.6 0.00 0.00 0.00 52 1011.4
20260905175903 96 9 0.0 2.6 0.00 0.00 0.00 54 1011.4
20260905175404 96 237 0.9 2.6 0.00 0.00 0.00 53 1011.6
20260905174903 95 262 0.0 0.9 0.00 0.00 0.00 54 1011.7
20260905174404 96 74 0.9 5.2 0.00 0.00 0.00 52 1011.8
20260905173404 95 190 0.0 1.7 0.00 0.00 0.00 57 1011.9
20260905172904 94 182 0.0 1.7 0.00 0.00 0.00 55 1011.9
20260905172404 95 181 0.9 2.6 0.00 0.00 0.00 55 1012.0
20260905170403 94 347 0.9 2.6 0.00 0.00 0.00 56 1011.9
20260905165903 93 302 0.0 1.7 0.00 0.00 0.00 56 1011.9
20260905165404 93 183 0.9 2.6 0.00 0.00 0.00 56 1012.0
20260905164904 94 128 0.9 1.7 0.00 0.00 0.00 56 1012.1
20260905164403 94 278 0.9 2.6 0.00 0.00 0.00 57 1012.1
20260905163904 94 236 0.9 1.7 0.00 0.00 0.00 58 1012.1
20260905162904 93 223 0.9 5.2 0.00 0.00 0.00 58 1012.2
20260905162403 93 197 0.9 6.1 0.00 0.00 0.00 60 1012.3
20260905161904 93 227 0.9 5.2 0.00 0.00 0.00 59 1012.3
20260905161403 93 328 0.9 2.6 0.00 0.00 0.00 57 1012.3
20260905160904 93 71 0.0 2.6 0.00 0.00 0.00 59 1012.4
20260905160403 93 53 0.9 2.6 0.00 0.00 0.00 59 1012.4
20260905155403 93 200 0.0 1.7 0.00 0.00 0.00 58 1012.5
20260905154903 94 150 0.9 2.6 0.00 0.00 0.00 58 1012.5
20260905154404 94 342 0.9 2.6 0.00 0.00 0.00 58 1012.6
20260905153903 94 271 0.9 2.6 0.00 0.00 0.00 60 1012.7
20260905152903 93 204 0.0 1.7 0.00 0.00 0.00 60 1012.5
20260905152403 93 201 0.0 1.7 0.00 0.00 0.00 61 1012.5
20260905151903 93 57 0.0 1.7 0.00 0.00 0.00 61 1012.5
20260905151403 93 41 0.9 1.7 0.00 0.00 0.00 61 1012.5
20260905150904 93 76 0.0 1.7 0.00 0.00 0.00 60 1012.5
20260905150403 93 125 0.0 1.7 0.00 0.00 0.00 61 1012.6
20260905145904 92 66 0.0 1.7 0.00 0.00 0.00 62 1012.7
20260905145403 92 45 0.0 0.9 0.00 0.00 0.00 65 1012.6
20260905144903 91 104 0.9 1.7 0.00 0.00 0.00 65 1012.6
20260905144404 91 264 0.9 2.6 0.00 0.00 0.00 67 1012.6
20260905143904 90 242 0.0 0.9 0.00 0.00 0.00 70 1012.6
20260905143403 89 283 0.0 0.9 0.00 0.00 0.00 70 1012.6
20260905142904 88 201 0.0 0.9 0.00 0.00 0.00 71 1012.6
20260905142404 88 204 0.0 0.9 0.00 0.00 0.00 73 1012.5
20260905141904 87 207 0.0 0.9 0.00 0.00 0.00 75 1012.5
20260905140904 86 229 0.0 1.7 0.00 0.00 0.00 77 1012.6
20260905135904 84 205 0.0 0.0 0.00 0.00 0.00 81 1012.7
20260905134904 81 206 0.0 1.7 0.00 0.00 0.00 84 1012.8
20260905134403 81 205 0.0 0.0 0.00 0.00 0.00 84 1012.8
20260905133904 80 205 0.0 0.0 0.00 0.00 0.00 84 1012.8
20260905132903 79 205 0.0 0.0 0.00 0.00 0.00 83 1012.9
20260905132404 78 205 0.0 0.0 0.00 0.00 0.00 82 1012.9
20260905131904 78 205 0.0 0.0 0.00 0.00 0.00 79 1012.9
20260905131404 77 204 0.0 0.0 0.00 0.00 0.00 74 1012.9
20260905130903 77 204 0.0 0.0 0.00 0.00 0.00 73 1013.0
20260905130403 76 204 0.0 0.0 0.00 0.00 0.00 70 1013.0
20260905125904 76 204 0.0 0.0 0.00 0.00 0.00 71 1013.1
20260905125403 75 204 0.0 0.0 0.00 0.00 0.00 70 1013.1
20260905124904 75 204 0.0 0.0 0.00 0.00 0.00 68 1013.1
20260905124404 74 204 0.0 0.0 0.00 0.00 0.00 67 1013.1
20260905123903 74 204 0.0 0.0 0.00 0.00 0.00 68 1013.1
20260905123404 74 204 0.0 0.0 0.00 0.00 0.00 67 1013.1
20260905122404 74 204 0.0 0.0 0.00 0.00 0.00 65 1013.2
20260905121903 73 204 0.0 0.0 0.00 0.00 0.00 66 1013.1